TimeEST,TemperatureF,Dew PointF,Humidity,Sea Level PressureIn,VisibilityMPH,Wind Direction,Wind SpeedMPH,Gust SpeedMPH,PrecipitationIn,Events,Conditions,WindDirDegrees,DateUTC
12:53 AM,73.9,72.0,93,30.04,10.0,ESE,13.8,23.0,N/A,,Mostly Cloudy,120,2013-02-23 05:53:00
1:05 AM,73.4,71.6,94,30.04,10.0,SE,16.1,21.9,N/A,,Mostly Cloudy,130,2013-02-23 06:05:00
1:53 AM,73.9,71.1,91,30.03,10.0,SE,19.6,-,N/A,,Mostly Cloudy,140,2013-02-23 06:53:00
2:26 AM,73.4,71.6,94,30.01,10.0,SE,12.7,23.0,N/A,,Scattered Clouds,130,2013-02-23 07:26:00
2:53 AM,73.9,71.1,91,30.01,10.0,SSE,13.8,21.9,N/A,,Mostly Cloudy,150,2013-02-23 07:53:00
3:46 AM,73.4,69.8,88,30.00,10.0,SSE,11.5,20.7,N/A,,Scattered Clouds,160,2013-02-23 08:46:00
4:53 AM,73.9,70.0,87,30.00,10.0,SSE,13.8,-,N/A,,Partly Cloudy,150,2013-02-23 09:53:00
5:53 AM,73.9,70.0,87,30.01,10.0,SSE,16.1,-,N/A,,Scattered Clouds,150,2013-02-23 10:53:00
6:17 AM,73.4,69.8,88,30.01,10.0,South,15.0,-,N/A,,Mostly Cloudy,170,2013-02-23 11:17:00
6:53 AM,73.9,69.1,85,30.01,10.0,SSE,10.4,19.6,N/A,,Mostly Cloudy,160,2013-02-23 11:53:00
7:06 AM,73.4,68.0,83,30.01,10.0,South,11.5,-,N/A,,Partly Cloudy,170,2013-02-23 12:06:00
7:53 AM,75.0,68.0,79,30.02,10.0,South,16.1,21.9,N/A,,Partly Cloudy,170,2013-02-23 12:53:00
8:53 AM,78.1,69.1,74,30.04,10.0,South,15.0,21.9,N/A,,Scattered Clouds,170,2013-02-23 13:53:00
9:53 AM,79.0,70.0,74,30.05,10.0,South,15.0,20.7,N/A,,Scattered Clouds,170,2013-02-23 14:53:00
10:53 AM,79.0,71.1,77,30.04,10.0,SSE,16.1,-,N/A,,Scattered Clouds,160,2013-02-23 15:53:00
11:53 AM,81.0,70.0,69,30.02,10.0,South,15.0,24.2,N/A,,Scattered Clouds,170,2013-02-23 16:53:00
12:53 PM,80.1,71.1,74,30.00,10.0,SSE,21.9,26.5,N/A,,Partly Cloudy,160,2013-02-23 17:53:00
1:53 PM,81.0,72.0,74,29.97,10.0,SSE,19.6,25.3,N/A,,Partly Cloudy,160,2013-02-23 18:53:00
2:53 PM,79.0,72.0,79,29.96,10.0,SSE,12.7,21.9,N/A,,Scattered Clouds,160,2013-02-23 19:53:00
3:53 PM,80.1,72.0,76,29.94,10.0,SSE,16.1,-,N/A,,Scattered Clouds,160,2013-02-23 20:53:00
4:53 PM,78.1,72.0,81,29.94,10.0,SSE,16.1,24.2,N/A,,Clear,160,2013-02-23 21:53:00
5:53 PM,77.0,73.0,88,29.94,10.0,SSE,16.1,19.6,N/A,,Clear,160,2013-02-23 22:53:00
6:53 PM,75.9,73.9,94,29.95,10.0,SSE,12.7,-,N/A,,Clear,160,2013-02-23 23:53:00
7:53 PM,75.9,73.0,91,29.97,10.0,South,6.9,-,N/A,,Mostly Cloudy,180,2013-02-24 00:53:00
8:53 PM,75.9,72.0,87,29.98,10.0,South,6.9,-,N/A,,Mostly Cloudy,190,2013-02-24 01:53:00
9:53 PM,75.9,72.0,87,29.99,10.0,SSW,5.8,-,N/A,,Overcast,200,2013-02-24 02:53:00
10:53 PM,75.0,73.0,94,29.99,10.0,SSW,4.6,-,N/A,,Mostly Cloudy,210,2013-02-24 03:53:00
11:53 PM,73.9,72.0,93,29.99,10.0,Calm,Calm,-,N/A,,Scattered Clouds,0,2013-02-24 04:53:00